FloripaSat 1
1 44885U 19093G   25217.49839846  .00004448  00000-0  37182-3 0  9993
2 44885  97.8147 305.2334 0010211  15.7958 344.3581 14.98983617305278
RS-44
1 44909U 19096E   25217.39166063  .00000031  00000-0  74483-4 0  9996
2 44909  82.5218 189.5338 0217736 162.4497 198.4283 12.79742393261955
UPMSat 2
1 46276U 20061E   25217.19425933  .00104960  00000-0  63878-3 0  9992
2 46276  97.2394 293.7861 0001196 185.1921 174.9334 15.77155601274362
SALSAT
1 46495U 20068K   25217.51080676  .00006521  00000-0  27664-3 0  9996
2 46495  97.8639 198.2090 0009972 333.2539  26.8181 15.23440738267194
CubeSX-Sirius-HSE
1 47951U 21022V   25157.62701764  .07883385  25648-5  89537-3 0  9993
2 47951  97.4004  72.1904 0010275 223.9924 136.0557 16.36879307233400
CubeSX-HSE
1 47952U 21022W   25157.69972699  .06655353  25454-5  93288-3 0  9992
2 47952  97.3980  72.5414 0010307 219.3637 140.6911 16.34906352233436
GRBAlpha
1 47959U 21022AD  25160.45426279  .07940347  25506-5  90589-3 0  9995
2 47959  97.3899  75.6235 0011032 227.2558 132.7812 16.36806138232695
TUBIN
1 48900U 21059X   25217.51966420  .00045836  00000-0  46196-3 0  9993
2 48900  97.6766  31.5825 0002749  30.1480 329.9936 15.65268023228939
LEDSAT
1 49069U 21073D   25217.17143595  .00098916  00000-0  85571-3 0  9995
2 49069  97.3850 301.3764 0008903 219.7349 140.3262 15.68828146220282
CUTE
1 49263U 21088D   25217.17571409  .00025188  00000-0  45804-3 0  9992
2 49263  97.4486 295.1566 0007189  41.1951 318.9841 15.49491882213184
TeikyoSat 4
1 49396U 21102B   25217.36065646  .00001665  00000-0  11250-3 0  9990
2 49396  97.4078 253.7359 0010859 303.2846  56.7342 15.07848391205102
Z-Sat
1 49399U 21102E   25217.56721113  .00003313  00000-0  18134-3 0  9993
2 49399  97.3772 257.3894 0016178 265.5355  94.4029 15.14816955205609
KOSEN 1
1 49402U 21102H   25217.52654079  .00006177  00000-0  28142-3 0  9991
2 49402  97.3674 261.2034 0014324 235.4726 124.5158 15.20937029205942
HO-113
1 50466U 21131B   25217.56605937  .00000461  00000-0  15773-3 0  9994
2 50466  98.5102 306.6411 0003488 341.3267  18.7794 14.40870287189654
Foresail-1
1 52766U 22057AL  25176.64799660  .13857605  27391-5  25307-3 0  9992
2 52766  97.5832 331.2310 0012137 233.7199 258.4922 16.46795272172486
SNUGLITE 2
1 52899U 22065F   25217.38302350  .00001008  00000-0  20445-3 0  9996
2 52899  98.1758 358.8289 0006426 300.0215  60.0349 14.63325108164797
UmKA 1 (RS40S)
1 57172U 23091G   25217.58365455  .00005277  00000-0  27829-3 0  9997
2 57172  97.5547 272.6756 0015483 133.9082 226.3431 15.15894568116116
CubeBel-2 (EU11S)
1 57175U 23091K   25217.58992271  .00008210  00000-0  38113-3 0  9990
2 57175  97.5547 274.1885 0013139 139.3857 220.8361 15.20208440116211
VERONIKA
1 58261U 23174F   25217.55452817  .00692843  21986-3  13788-2 0  9993
2 58261  97.4046 308.0548 0010206 249.1480 110.8706 15.99815117 97689
ENSO
1 58470U 23185J   25217.58086599  .00067546  00000-0  76844-3 0  9990
2 58470  97.3698 294.7586 0006568 220.1392 139.9382 15.62057182 93917
EIRSAT-1
1 58472U 23185L   25217.53990301  .00232540  00000-0  10367-2 0  9997
2 58472  97.3614 297.9310 0007471 231.3322 128.7279 15.83632619 94120
SONATE-2
1 59112U 24043Q   25217.34750493  .00016191  00000-0  44324-3 0  9991
2 59112  97.5192 349.7494 0009570 270.7260  89.2887 15.37374458 79058
MO-122
1 60209U 24125G   25217.54197533  .00016274  00000-0  43706-3 0  9998
2 60209  97.2743  68.5747 0016283 294.1740  65.7803 15.37871524 60700
GRBBeta
1 60237U 24128C   25217.49132322  .00002965  00000-0  22756-3 0  9995
2 60237  61.9895 241.0634 0055512  69.5735 291.1305 15.03030323 58757
Curium One
1 60242U 24128H   25217.49512383  .00005359  00000-0  36995-3 0  9990
2 60242  61.9794 238.4664 0055601  65.9061 294.7833 15.05793364 58809
ROBUSTA-3A
1 60243U 24128J   25217.58218654  .00004393  00000-0  31044-3 0  9992
2 60243  61.9864 239.1833 0054646  63.5673 297.1012 15.05302083 58805
CatSat
1 60246U 24125J   25217.55862609  .00015130  00000-0  48673-3 0  9991
2 60246  97.2550  67.1369 0039883 250.0409 109.6535 15.31539882 58705
HYPERVIEW-1G (RS66S)
1 61772U 24199AP  25217.59683844  .00020752  00000-0  56326-3 0  9993
2 61772  97.3461  86.3921 0012317 357.0909   3.0262 15.37551213 85718
AO-123
1 61781U 24199AY  25217.59417171  .00006078  00000-0  21763-3 0  9993
2 61781  97.3479  84.6192 0015497   2.6931 357.4390 15.29017322 85591
ZIMSAT 2
1 61783U 24199BA  25217.62261912  .00039109  00000-0  84100-3 0  9994
2 61783  97.3427  87.5274 0010987 353.5378   6.5727 15.44490516 88946
HADES-R (SO-124)
1 62690U 25009CK  25217.47847967  .00038633  00000-0  12193-2 0  9999
2 62690  97.4068 298.1920 0002659 223.7240 136.3792 15.32743965 30854
HYDRA-T
1 62692U 25009CM  25217.19175621  .00040162  00000-0  12540-2 0  9997
2 62692  97.4068 297.9647 0002610 219.9127 140.1924 15.33079116 30814
JINJUSat 1B
1 63210U 25052A   25217.23343905  .00010827  00000-0  48073-3 0  9995
2 63210  97.4347 110.6584 0006130 114.6828 245.5046 15.21711419 21868
NUSHSAT 1
1 63211U 25052B   25217.28356183  .00011114  00000-0  48840-3 0  9995
2 63211  97.4342 110.7251 0006107 119.0123 241.1726 15.22059070 21874
TEVEL2-4
1 63213U 25052D   25217.44056860  .00011594  00000-0  51456-3 0  9993
2 63213  97.4248 110.6683 0004936 127.8894 232.2789 15.21716734 21897
TEVEL2-5
1 63214U 25052E   25217.44201803  .00011523  00000-0  51187-3 0  9996
2 63214  97.4253 110.6666 0004945 127.7242 232.4442 15.21687160 21899
TEVEL2-6
1 63215U 25052F   25217.44565955  .00011731  00000-0  52163-3 0  9994
2 63215  97.4256 110.6638 0004963 128.6810 231.4871 15.21647858 21898
TEVEL2-1
1 63217U 25052H   25216.21546345  .00010237  00000-0  45917-3 0  9991
2 63217  97.4227 109.3595 0004705 141.5406 218.6165 15.21385504 21704
TEVEL2-3
1 63218U 25052J   25216.93917539  .00010367  00000-0  46473-3 0  9990
2 63218  97.4227 110.0741 0004787 140.7674 219.3910 15.21404011 21818
TEVEL2-2
1 63219U 25052K   25217.20262715  .00011182  00000-0  50098-3 0  9995
2 63219  97.4229 110.3322 0004804 140.5220 219.6367 15.21402451 21853
TEVEL2-9
1 63237U 25052AD  25217.44522637  .00010775  00000-0  50040-3 0  9997
2 63237  97.4295 110.4341 0008513 162.9488 197.2034 15.20155522 21870
TEVEL2-7
1 63238U 25052AE  25217.25255839  .00010915  00000-0  50799-3 0  9991
2 63238  97.4298 110.2366 0008501 164.1606 195.9896 15.20077098 21841
TEVEL2-8
1 63239U 25052AF  25217.25574075  .00011073  00000-0  51575-3 0  9997
2 63239  97.4297 110.2304 0008544 163.4011 196.7505 15.20045617 21840
HYDRA-W
1 63490U 25052BL  25217.12678486  .00026584  00000-0  10378-2 0  9991
2 63490  97.4236 110.7610 0012326 161.9002 198.2677 15.25809647 21879
HADES-ICM (SO-125)
1 63492U 25052BN  25217.22591506  .00024367  00000-0  96860-3 0  9999
2 63492  97.4246 110.7922 0012389 165.6812 194.4779 15.25222297 21889
